Regional Weather Roundup
Issued by NWS State College, PA

Home | Current Version | Previous Version | Text Only | Print | Product List | Glossary On
Versions: 1 2 3 4 5 6 7 8 9 10 11 12 13 14 15 16 17 18 19 20 21 22 23 24 25 26 27 28 29 30 31 32 33 34 35 36 37 38 39 40 41 42 43 44 45 46 47 48 49 50
000
ASUS41 KCTP 270503
RWRCTP

REGIONAL WEATHER ROUNDUP
NATIONAL WEATHER SERVICE STATE COLLEGE PA
100 AM EDT FRI MAR 27 2015

Note: "fair" indicates few or no clouds below 12,000 feet with no
significant weather and/or obstructions to visibility.

* = STATION THAT DOES NOT REPORT PRECIPITATION /E.G. RAIN...SNOW...ETC/
    THUNDER OR FOG.

PAZ002>004-007>009-013>016-020>023-029>032-270600-
WESTERN PENNSYLVANIA

CITY           SKY/WX    TMP DP  RH WIND       PRES   REMARKS
ERIE           CLOUDY    34  31  88 SW5       29.87S
MEADVILLE      CLOUDY    33  31  92 W3        29.83F FOG
FRANKLIN*      CLOUDY    34  28  80 NW6       29.84F
NEW CASTLE     FAIR      34  33  96 CALM      29.86F
BEAVER COUNTY  NOT AVBL
BUTLER*        CLOUDY    36  30  80 W5        29.87F
PITTSBURGH INT CLOUDY    36  33  89 W5        29.87S
PITTSBURGH     CLOUDY    37  31  78 NW10      29.85S
INDIANA*       CLOUDY    36  34  93 NW8       29.87F
LATROBE        LGT RAIN  37  37 100 NW7       29.87S
WASHINGTON CO* CLOUDY    37  32  81 NW6       29.88F
$$

PAZ004>006-010>012-017>019-024>028-033>037-041-042-045-046-049>053-270600-
CENTRAL PENNSYLVANIA

CITY           SKY/WX    TMP DP  RH WIND       PRES   REMARKS
BRADFORD       CLOUDY    31  29  92 NW13      29.78F FOG
DUBOIS         CLOUDY    34  30  85 NW7       29.80S
CLEARFIELD     CLOUDY    35  31  85 NW8       29.82R
JOHNSTOWN      LGT SNOW  33  32  96 NW16      29.78R FOG
ALTOONA        CLOUDY    39  35  86 NW12      29.79S
STATE COLLEGE  CLOUDY    39  35  84 NW10      29.80R
WILLIAMSPORT   CLOUDY    40  37  89 CALM      29.79S
SELINSGROVE    CLOUDY    42  37  82 CALM      29.80R
FT INDIANTOWN  CLOUDY    44  37  74 N8G20     29.77R
CAPITAL CITY   CLOUDY    46  39  76 NW6       29.77R
HARRISBURG     CLOUDY    46  38  73 N10       29.76S
YORK           LGT RAIN  44  41  89 NW5       29.76S
$$

PAZ038>040-043-044-047-048-054-055-060>062-067>071-270600-
EASTERN PENNSYLVANIA

CITY           SKY/WX    TMP DP  RH WIND       PRES   REMARKS
SCRANTON       CLOUDY    39  34  82 N10       29.75F
MOUNT POCONO   CLOUDY    35  33  92 NW18G25   29.68R
ALLENTOWN      CLOUDY    43  38  82 NW7       29.74R
QUAKERTOWN*    CLOUDY    41  39  93 NW5       29.74R
READING        LGT RAIN  43  38  82 NW8       29.76R
LANCASTER      LGT RAIN  44  40  85 NW9       29.76R
COATESVILLE    CLOUDY    45  41  87 NW10      29.73F
POTTSTOWN      CLOUDY    44  40  85 NW7       29.74R
BLUE BELL      CLOUDY    45  41  87 NW3       29.71F
DOYLESTOWN     CLOUDY    43  41  93 NW6       29.71R
WILLOW GROVE   NOT AVBL
NORTH PHILA    LGT RAIN  48  42  80 NW13      29.72F
PHILADELPHIA   LGT RAIN  47  42  83 NW16      29.72R
$$



USA.gov is the U.S. government's official web portal to all federal, state and local government web resources and services.